Satellite-Ground Cal/Val Site Overpasses Predictions

Prediction of Satellite NPP Overpassing Cal/Val Site: Antarctic Dome C

Ground Cal/Val Site Location: Latitude: -75.10, Longitude: 123.35; Satellite-Ground Site NADIR distance within 100 km.

Table of predicted overpasses for the next 14.0 days since TLE Epoch: 6/28/2019
Interval Starting Time Ending Time Minimum Distance Time Minimum Distance (km)
1 06/29/2019 14:36:24 06/29/2019 14:36:39 06/29/2019 14:36:32 83.97
2 06/30/2019 07:37:57 06/30/2019 07:38:24 06/30/2019 07:38:11 36.03
3 07/01/2019 07:19:11 07/01/2019 07:19:31 07/01/2019 07:19:21 73.92
4 07/03/2019 15:01:27 07/03/2019 15:01:50 07/03/2019 15:01:38 60.32
5 07/04/2019 14:42:37 07/04/2019 14:43:02 07/04/2019 14:42:50 48.96
6 07/05/2019 07:44:19 07/05/2019 07:44:39 07/05/2019 07:44:29 71.28
7 07/06/2019 07:25:26 07/06/2019 07:25:53 07/06/2019 07:25:39 36.63
8 07/08/2019 15:07:55 07/08/2019 15:08:00 07/08/2019 15:07:57 98.08
9 07/09/2019 14:48:53 07/09/2019 14:49:22 07/09/2019 14:49:08 13.21


NCC Satellite Cal/Val Overpasses Prediction Service
